TimeMST,TemperatureF,Dew PointF,Humidity,Sea Level PressureIn,VisibilityMPH,Wind Direction,Wind SpeedMPH,Gust SpeedMPH,PrecipitationIn,Events,Conditions,WindDirDegrees,DateUTC
12:53 AM,37.9,9.0,30,30.10,10.0,NW,6.9,-,N/A,,Clear,320,2012-11-15 07:53:00
1:53 AM,36.0,10.0,34,30.10,10.0,WNW,3.5,-,N/A,,Clear,290,2012-11-15 08:53:00
2:53 AM,34.0,10.0,37,30.10,10.0,NW,4.6,-,N/A,,Clear,310,2012-11-15 09:53:00
3:53 AM,33.1,10.0,38,30.09,10.0,NNW,3.5,-,N/A,,Clear,340,2012-11-15 10:53:00
4:53 AM,28.9,5.0,36,30.12,10.0,Calm,Calm,-,N/A,,Clear,0,2012-11-15 11:53:00
5:53 AM,30.0,8.1,40,30.16,10.0,NW,4.6,-,N/A,,Clear,320,2012-11-15 12:53:00
6:53 AM,30.9,9.0,40,30.19,10.0,WNW,3.5,-,N/A,,Clear,300,2012-11-15 13:53:00
7:53 AM,39.0,10.0,30,30.19,10.0,Calm,Calm,-,N/A,,Clear,0,2012-11-15 14:53:00
8:53 AM,48.9,10.9,22,30.18,10.0,Calm,Calm,-,N/A,,Clear,0,2012-11-15 15:53:00
9:53 AM,59.0,12.0,16,30.18,10.0,East,6.9,-,N/A,,Clear,90,2012-11-15 16:53:00
10:53 AM,64.9,12.9,13,30.14,10.0,ENE,8.1,-,N/A,,Clear,70,2012-11-15 17:53:00
11:53 AM,66.9,12.0,12,30.13,10.0,ESE,6.9,-,N/A,,Clear,110,2012-11-15 18:53:00
12:53 PM,68.0,10.0,11,30.10,10.0,East,8.1,-,N/A,,Clear,80,2012-11-15 19:53:00
1:53 PM,68.0,10.0,11,30.11,10.0,ENE,3.5,-,N/A,,Clear,70,2012-11-15 20:53:00
2:53 PM,69.1,10.9,11,30.10,10.0,Variable,4.6,-,N/A,,Clear,0,2012-11-15 21:53:00
3:53 PM,68.0,12.0,11,30.10,10.0,East,6.9,-,N/A,,Clear,80,2012-11-15 22:53:00
4:53 PM,64.9,12.0,13,30.12,10.0,East,3.5,-,N/A,,Clear,80,2012-11-15 23:53:00
5:53 PM,61.0,10.9,14,30.14,10.0,ENE,6.9,-,N/A,,Clear,60,2012-11-16 00:53:00
6:53 PM,59.0,10.0,14,30.15,10.0,NE,5.8,-,N/A,,Clear,50,2012-11-16 01:53:00
7:53 PM,57.0,10.0,15,30.16,10.0,East,5.8,-,N/A,,Partly Cloudy,80,2012-11-16 02:53:00
8:53 PM,57.9,10.0,15,30.14,10.0,East,4.6,-,N/A,,Partly Cloudy,100,2012-11-16 03:53:00
9:53 PM,55.0,10.0,17,30.13,10.0,ENE,8.1,-,N/A,,Clear,60,2012-11-16 04:53:00
10:53 PM,54.0,10.0,17,30.11,10.0,ENE,8.1,-,N/A,,Clear,60,2012-11-16 05:53:00
11:53 PM,52.0,9.0,18,30.11,10.0,ENE,8.1,-,N/A,,Clear,60,2012-11-16 06:53:00